Year,Month,Day,Hour,Minute,Value (Times are PST for temperature in C)
2015,07,05,00,00,19.90
2015,07,05,00,01,19.90
2015,07,05,00,02,19.90
2015,07,05,00,03,19.90
2015,07,05,00,04,19.90
2015,07,05,00,05,19.90
2015,07,05,00,06,19.90
2015,07,05,00,07,19.90
2015,07,05,00,08,19.90
2015,07,05,00,09,19.90
2015,07,05,00,10,19.90
2015,07,05,00,11,19.90
2015,07,05,00,12,19.90
2015,07,05,00,13,19.80
2015,07,05,00,14,19.80
2015,07,05,00,15,19.80
2015,07,05,00,16,19.80
2015,07,05,00,17,19.80
2015,07,05,00,18,19.80
2015,07,05,00,19,19.80
2015,07,05,00,20,19.80
2015,07,05,00,21,19.80
2015,07,05,00,22,19.80
2015,07,05,00,23,19.80
2015,07,05,00,24,19.80
2015,07,05,00,25,19.80
2015,07,05,00,26,19.70
2015,07,05,00,27,19.70
2015,07,05,00,28,19.70
2015,07,05,00,29,19.70
2015,07,05,00,30,19.70
2015,07,05,00,31,19.70
2015,07,05,00,32,19.70
2015,07,05,00,33,19.60
2015,07,05,00,34,19.60
2015,07,05,00,35,19.60
2015,07,05,00,36,19.60
2015,07,05,00,37,19.60
2015,07,05,00,38,19.50
2015,07,05,00,39,19.50
2015,07,05,00,40,19.50
2015,07,05,00,41,19.50
2015,07,05,00,42,19.40
2015,07,05,00,43,19.40
2015,07,05,00,44,19.40
2015,07,05,00,45,19.40
2015,07,05,00,46,19.40
2015,07,05,00,47,19.30
2015,07,05,00,48,19.30
2015,07,05,00,49,19.30
2015,07,05,00,50,19.30
2015,07,05,00,51,19.20
2015,07,05,00,52,19.20
2015,07,05,00,53,19.20
2015,07,05,00,54,19.20
2015,07,05,00,55,19.20
2015,07,05,00,56,19.10
2015,07,05,00,57,19.10
2015,07,05,00,58,19.10
2015,07,05,00,59,19.10
2015,07,05,01,00,19.00
2015,07,05,01,01,19.00
2015,07,05,01,02,19.00
2015,07,05,01,03,18.90
2015,07,05,01,04,18.90
2015,07,05,01,05,18.90
2015,07,05,01,06,18.90
2015,07,05,01,07,18.90
2015,07,05,01,08,18.90
2015,07,05,01,09,18.90
2015,07,05,01,10,18.80
2015,07,05,01,11,18.80
2015,07,05,01,12,18.80
2015,07,05,01,13,18.80
2015,07,05,01,14,18.80
2015,07,05,01,15,18.80
2015,07,05,01,16,18.80
2015,07,05,01,17,18.80
2015,07,05,01,18,18.80
2015,07,05,01,19,18.80
2015,07,05,01,20,18.70
2015,07,05,01,21,18.70
2015,07,05,01,22,18.70
2015,07,05,01,23,18.70
2015,07,05,01,24,18.70
2015,07,05,01,25,18.70
2015,07,05,01,26,18.60
2015,07,05,01,27,18.60
2015,07,05,01,28,18.60
2015,07,05,01,29,18.60
2015,07,05,01,30,18.60
2015,07,05,01,31,18.60
2015,07,05,01,32,18.50
2015,07,05,01,33,18.50
2015,07,05,01,34,18.50
2015,07,05,01,35,18.40
2015,07,05,01,36,18.40
2015,07,05,01,37,18.40
2015,07,05,01,38,18.40
2015,07,05,01,39,18.40
2015,07,05,01,40,18.40
2015,07,05,01,41,18.40
2015,07,05,01,42,18.40
2015,07,05,01,43,18.40
2015,07,05,01,44,18.40
2015,07,05,01,45,18.40
2015,07,05,01,46,18.40
2015,07,05,01,47,18.40
2015,07,05,01,48,18.40
2015,07,05,01,49,18.40
2015,07,05,01,50,18.30
2015,07,05,01,51,18.30
2015,07,05,01,52,18.30
2015,07,05,01,53,18.30
2015,07,05,01,54,18.30
2015,07,05,01,55,18.30
2015,07,05,01,56,18.30
2015,07,05,01,57,18.30
2015,07,05,01,58,18.30
2015,07,05,01,59,18.20
2015,07,05,02,00,18.20
2015,07,05,02,01,18.20
2015,07,05,02,02,18.20
2015,07,05,02,03,18.10
2015,07,05,02,04,18.10
2015,07,05,02,05,18.10
2015,07,05,02,06,18.10
2015,07,05,02,07,18.20
2015,07,05,02,08,18.20
2015,07,05,02,09,18.20
2015,07,05,02,10,18.20
2015,07,05,02,11,18.20
2015,07,05,02,12,18.20
2015,07,05,02,13,18.20
2015,07,05,02,14,18.20
2015,07,05,02,15,18.20
2015,07,05,02,16,18.30
2015,07,05,02,17,18.30
2015,07,05,02,18,18.30
2015,07,05,02,19,18.30
2015,07,05,02,20,18.30
2015,07,05,02,21,18.30
2015,07,05,02,22,18.20
2015,07,05,02,23,18.20
2015,07,05,02,24,18.20
2015,07,05,02,25,18.20
2015,07,05,02,26,18.20
2015,07,05,02,27,18.20
2015,07,05,02,28,18.20
2015,07,05,02,29,18.20
2015,07,05,02,30,18.20
2015,07,05,02,31,18.30
2015,07,05,02,32,18.30
2015,07,05,02,33,18.30
2015,07,05,02,34,18.40
2015,07,05,02,35,18.40
2015,07,05,02,36,18.50
2015,07,05,02,37,18.60
2015,07,05,02,38,18.60
2015,07,05,02,39,18.60
2015,07,05,02,40,18.70
2015,07,05,02,41,18.70
2015,07,05,02,42,18.70
2015,07,05,02,43,18.80
2015,07,05,02,44,18.90
2015,07,05,02,45,18.90
2015,07,05,02,46,18.90
2015,07,05,02,47,18.90
2015,07,05,02,48,18.90
2015,07,05,02,49,19.00
2015,07,05,02,50,19.00
2015,07,05,02,51,19.10
2015,07,05,02,52,19.10
2015,07,05,02,53,19.10
2015,07,05,02,54,19.00
2015,07,05,02,55,19.00
2015,07,05,02,56,19.00
2015,07,05,02,57,18.90
2015,07,05,02,58,18.90
2015,07,05,02,59,18.90
2015,07,05,03,00,18.90
2015,07,05,03,01,18.90
2015,07,05,03,02,18.90
2015,07,05,03,03,18.90
2015,07,05,03,04,18.90
2015,07,05,03,05,18.90
2015,07,05,03,06,18.80
2015,07,05,03,07,18.80
2015,07,05,03,08,18.80
2015,07,05,03,09,18.80
2015,07,05,03,10,18.80
2015,07,05,03,11,18.90
2015,07,05,03,12,18.90
2015,07,05,03,13,18.90
2015,07,05,03,14,18.90
2015,07,05,03,15,18.90
2015,07,05,03,16,18.90
2015,07,05,03,17,18.90
2015,07,05,03,18,18.80
2015,07,05,03,19,18.80
2015,07,05,03,20,18.80
2015,07,05,03,21,18.80
2015,07,05,03,22,18.80
2015,07,05,03,23,18.80
2015,07,05,03,24,18.80
2015,07,05,03,25,18.80
2015,07,05,03,26,18.80
2015,07,05,03,27,18.80
2015,07,05,03,28,18.80
2015,07,05,03,29,18.80
2015,07,05,03,30,18.80
2015,07,05,03,31,18.80
2015,07,05,03,32,18.80
2015,07,05,03,33,18.80
2015,07,05,03,34,18.80
2015,07,05,03,35,18.80
2015,07,05,03,36,18.70
2015,07,05,03,37,18.70
2015,07,05,03,38,18.70
2015,07,05,03,39,18.70
2015,07,05,03,40,18.70
2015,07,05,03,41,18.70
2015,07,05,03,42,18.70
2015,07,05,03,43,18.70
2015,07,05,03,44,18.70
2015,07,05,03,45,18.60
2015,07,05,03,46,18.60
2015,07,05,03,47,18.60
2015,07,05,03,48,18.50
2015,07,05,03,49,18.50
2015,07,05,03,50,18.50
2015,07,05,03,51,18.40
2015,07,05,03,52,18.40
2015,07,05,03,53,18.40
2015,07,05,03,54,18.40
2015,07,05,03,55,18.50
2015,07,05,03,56,18.50
2015,07,05,03,57,18.50
2015,07,05,03,58,18.50
2015,07,05,03,59,18.50
2015,07,05,04,00,18.50
2015,07,05,04,01,18.50
2015,07,05,04,02,18.40
2015,07,05,04,03,18.40
2015,07,05,05,02,17.50
2015,07,05,05,03,17.50
2015,07,05,05,04,17.40
2015,07,05,05,05,17.40
2015,07,05,05,06,17.30
2015,07,05,05,07,17.30
2015,07,05,05,08,17.30
2015,07,05,05,09,17.30
2015,07,05,05,10,17.30
2015,07,05,05,11,17.30
2015,07,05,05,12,17.30
2015,07,05,05,13,17.30
2015,07,05,05,14,17.30
2015,07,05,05,15,17.30
2015,07,05,05,16,17.30
2015,07,05,05,17,17.20
2015,07,05,05,18,17.20
2015,07,05,05,19,17.20
2015,07,05,05,20,17.20
2015,07,05,05,21,17.20
2015,07,05,05,22,17.10
2015,07,05,05,23,17.10
2015,07,05,05,24,17.10
2015,07,05,05,25,17.00
2015,07,05,05,26,16.90
2015,07,05,05,27,16.90
2015,07,05,05,28,16.80
2015,07,05,05,29,16.80
2015,07,05,05,30,16.70
2015,07,05,05,31,16.70
2015,07,05,05,32,16.70
2015,07,05,05,33,16.60
2015,07,05,05,34,16.60
2015,07,05,05,35,16.60
2015,07,05,05,36,16.50
2015,07,05,05,37,16.50
2015,07,05,05,38,16.40
2015,07,05,05,39,16.40
2015,07,05,05,40,16.40
2015,07,05,05,41,16.30
2015,07,05,05,42,16.30
2015,07,05,05,43,16.30
2015,07,05,05,44,16.30
2015,07,05,05,45,16.20
2015,07,05,05,46,16.20
2015,07,05,05,47,16.20
2015,07,05,05,48,16.20
2015,07,05,05,49,16.20
2015,07,05,05,50,16.20
2015,07,05,05,51,16.10
2015,07,05,05,52,16.10
2015,07,05,05,53,16.10
2015,07,05,05,54,16.20
2015,07,05,05,55,16.20
2015,07,05,05,56,16.20
2015,07,05,05,57,16.20
2015,07,05,05,58,16.20
2015,07,05,05,59,16.20
2015,07,05,06,00,16.20
2015,07,05,06,01,16.20
2015,07,05,06,02,16.30
2015,07,05,06,03,16.30
2015,07,05,06,04,16.30
2015,07,05,06,05,16.30
2015,07,05,06,06,16.30
2015,07,05,06,07,16.30
2015,07,05,06,08,16.20
2015,07,05,06,09,16.20
2015,07,05,06,10,16.20
2015,07,05,06,11,16.20
2015,07,05,06,12,16.20
2015,07,05,06,13,16.20
2015,07,05,06,14,16.20
2015,07,05,06,15,16.20
2015,07,05,06,16,16.20
2015,07,05,06,17,16.30
2015,07,05,06,18,16.30
2015,07,05,06,19,16.40
2015,07,05,06,20,16.40
2015,07,05,06,21,16.50
2015,07,05,06,22,16.60
2015,07,05,06,23,16.60
2015,07,05,06,24,16.70
2015,07,05,06,25,16.70
2015,07,05,06,26,16.80
2015,07,05,06,27,16.80
2015,07,05,06,28,16.80
2015,07,05,06,29,16.90
2015,07,05,06,30,16.90
2015,07,05,06,31,17.00
2015,07,05,06,32,17.00
2015,07,05,06,33,17.10
2015,07,05,06,34,17.10
2015,07,05,06,35,17.10
2015,07,05,06,36,17.10
2015,07,05,06,37,17.10
2015,07,05,06,38,17.10
2015,07,05,06,39,17.10
2015,07,05,06,40,17.10
2015,07,05,06,41,17.00
2015,07,05,06,42,16.90
2015,07,05,06,43,16.90
2015,07,05,06,44,16.80
2015,07,05,06,45,16.80
2015,07,05,06,46,16.80
2015,07,05,06,47,16.80
2015,07,05,06,48,16.80
2015,07,05,06,49,16.80
2015,07,05,06,50,16.80
2015,07,05,06,51,16.80
2015,07,05,06,52,16.80
2015,07,05,06,53,16.80
2015,07,05,06,54,16.80
2015,07,05,06,55,16.90
2015,07,05,06,56,16.90
2015,07,05,06,57,16.90
2015,07,05,06,58,16.90
2015,07,05,06,59,16.90
2015,07,05,07,00,17.00
2015,07,05,07,01,17.00
2015,07,05,07,02,17.10
2015,07,05,07,03,17.10
2015,07,05,07,04,17.20
2015,07,05,07,05,17.20
2015,07,05,07,06,17.30
2015,07,05,07,07,17.30
2015,07,05,07,08,17.40
2015,07,05,07,09,17.40
2015,07,05,07,10,17.40
2015,07,05,07,11,17.40
2015,07,05,07,12,17.40
2015,07,05,07,13,17.40
2015,07,05,07,14,17.50
2015,07,05,07,15,17.50
2015,07,05,07,16,17.60
2015,07,05,07,17,17.60
2015,07,05,07,18,17.70
2015,07,05,07,19,17.70
2015,07,05,07,20,17.80
2015,07,05,07,21,17.80
2015,07,05,07,22,17.80
2015,07,05,07,23,17.80
2015,07,05,07,24,17.80
2015,07,05,07,25,17.80
2015,07,05,07,26,17.90
2015,07,05,07,27,17.90
2015,07,05,07,28,17.90
2015,07,05,07,29,17.90
2015,07,05,07,30,17.90
2015,07,05,07,31,18.00
2015,07,05,07,32,18.00
2015,07,05,07,33,18.00
2015,07,05,07,34,18.00
2015,07,05,07,35,18.00
2015,07,05,07,36,18.00
2015,07,05,07,37,18.00
2015,07,05,07,38,18.10
2015,07,05,07,39,18.10
2015,07,05,07,40,18.20
2015,07,05,07,41,18.20
2015,07,05,07,42,18.20
2015,07,05,07,43,18.20
2015,07,05,07,44,18.30
2015,07,05,07,45,18.30
2015,07,05,07,46,18.30
2015,07,05,07,47,18.40
2015,07,05,07,48,18.40
2015,07,05,07,49,18.40
2015,07,05,07,50,18.50
2015,07,05,07,51,18.50
2015,07,05,07,52,18.60
2015,07,05,07,53,18.60
2015,07,05,07,54,18.60
2015,07,05,07,55,18.70
2015,07,05,07,56,18.70
2015,07,05,07,57,18.80
2015,07,05,07,58,18.80
2015,07,05,07,59,18.80
2015,07,05,08,00,18.80
2015,07,05,08,01,18.80
2015,07,05,08,02,18.90
2015,07,05,08,03,18.90
2015,07,05,08,04,19.00
2015,07,05,08,05,19.00
2015,07,05,08,06,19.10
2015,07,05,08,07,19.10
2015,07,05,08,08,19.20
2015,07,05,08,09,19.20
2015,07,05,08,10,19.30
2015,07,05,08,11,19.30
2015,07,05,08,12,19.40
2015,07,05,08,13,19.50
2015,07,05,08,14,19.60
2015,07,05,08,15,19.70
2015,07,05,08,16,19.80
2015,07,05,08,17,19.80
2015,07,05,08,18,19.90
2015,07,05,08,19,20.00
2015,07,05,08,20,20.00
2015,07,05,08,21,20.10
2015,07,05,08,22,20.10
2015,07,05,08,23,20.20
2015,07,05,08,24,20.20
2015,07,05,08,25,20.20
2015,07,05,08,26,20.30
2015,07,05,08,27,20.30
2015,07,05,08,28,20.30
2015,07,05,08,29,20.30
2015,07,05,08,30,20.30
2015,07,05,08,31,20.40
2015,07,05,08,32,20.40
2015,07,05,08,33,20.50
2015,07,05,08,34,20.50
2015,07,05,08,35,20.60
2015,07,05,08,36,20.60
2015,07,05,08,37,20.70
2015,07,05,08,38,20.70
2015,07,05,08,39,20.70
2015,07,05,08,40,20.80
2015,07,05,08,41,20.80
2015,07,05,08,42,20.80
2015,07,05,08,43,20.90
2015,07,05,08,44,20.90
2015,07,05,08,45,21.00
2015,07,05,08,46,21.10
2015,07,05,08,47,21.10
2015,07,05,08,48,21.20
2015,07,05,08,49,21.20
2015,07,05,08,50,21.30
2015,07,05,08,51,21.30
2015,07,05,08,52,21.40
2015,07,05,08,53,21.40
2015,07,05,08,54,21.50
2015,07,05,08,55,21.50
2015,07,05,08,56,21.60
2015,07,05,08,57,21.60
2015,07,05,08,58,21.60
2015,07,05,08,59,21.70
2015,07,05,09,00,21.70
2015,07,05,09,01,21.80
2015,07,05,09,02,21.80
2015,07,05,09,03,21.90
2015,07,05,09,04,21.90
2015,07,05,09,05,22.00
2015,07,05,09,06,22.10
2015,07,05,09,07,22.10
2015,07,05,09,08,22.20
2015,07,05,09,09,22.20
2015,07,05,09,10,22.30
2015,07,05,09,11,22.40
2015,07,05,09,12,22.40
2015,07,05,09,13,22.50
2015,07,05,09,14,22.50
2015,07,05,09,15,22.50
2015,07,05,09,16,22.50
2015,07,05,09,17,22.50
2015,07,05,09,18,22.40
2015,07,05,09,19,22.40
2015,07,05,09,20,22.40
2015,07,05,09,21,22.40
2015,07,05,09,22,22.40
2015,07,05,09,23,22.30
2015,07,05,09,24,22.30
2015,07,05,09,25,22.30
2015,07,05,09,26,22.20
2015,07,05,09,27,22.20
2015,07,05,09,28,22.20
2015,07,05,09,29,22.20
2015,07,05,09,30,22.20
2015,07,05,09,31,22.20
2015,07,05,09,32,22.30
2015,07,05,09,33,22.30
2015,07,05,09,34,22.30
2015,07,05,09,35,22.30
2015,07,05,09,36,22.20
2015,07,05,09,37,22.30
2015,07,05,09,38,22.30
2015,07,05,09,39,22.30
2015,07,05,09,40,22.30
2015,07,05,09,41,22.40
2015,07,05,09,42,22.40
2015,07,05,09,43,22.50
2015,07,05,09,44,22.50
2015,07,05,09,45,22.50
2015,07,05,09,46,22.50
2015,07,05,09,47,22.60
2015,07,05,09,48,22.60
2015,07,05,09,49,22.60
2015,07,05,09,50,22.60
2015,07,05,09,51,22.70
2015,07,05,09,52,22.80
2015,07,05,09,53,22.80
2015,07,05,09,54,22.80
2015,07,05,09,55,22.80
2015,07,05,09,56,22.90
2015,07,05,09,57,22.90
2015,07,05,09,58,22.90
2015,07,05,09,59,22.90
2015,07,05,10,00,23.00
2015,07,05,10,01,23.00
2015,07,05,10,02,23.10
2015,07,05,10,03,23.10
2015,07,05,10,04,23.20
2015,07,05,10,05,23.30
2015,07,05,10,06,23.30
2015,07,05,10,07,23.30
2015,07,05,10,08,23.30
2015,07,05,10,09,23.30
2015,07,05,10,10,23.30
2015,07,05,10,11,23.30
2015,07,05,10,12,23.40
2015,07,05,10,13,23.40
2015,07,05,10,14,23.40
2015,07,05,10,15,23.40
2015,07,05,10,16,23.40
2015,07,05,10,17,23.40
2015,07,05,10,18,23.40
2015,07,05,10,19,23.40
2015,07,05,10,20,23.40
2015,07,05,10,21,23.50
2015,07,05,10,22,23.50
2015,07,05,10,23,23.60
2015,07,05,10,24,23.60
2015,07,05,10,25,23.60
2015,07,05,10,26,23.60
2015,07,05,10,27,23.70
2015,07,05,10,28,23.70
2015,07,05,10,29,23.80
2015,07,05,10,30,23.80
2015,07,05,10,31,23.80
2015,07,05,10,32,23.80
2015,07,05,10,33,23.80
2015,07,05,10,34,23.80
2015,07,05,10,35,23.90
2015,07,05,10,36,24.00
2015,07,05,10,37,24.10
2015,07,05,10,38,24.20
2015,07,05,10,39,24.30
2015,07,05,10,40,24.40
2015,07,05,10,41,24.60
2015,07,05,10,42,24.60
2015,07,05,10,43,24.70
2015,07,05,10,44,24.70
2015,07,05,10,45,24.70
2015,07,05,10,46,24.70
2015,07,05,10,47,24.80
2015,07,05,10,48,24.80
2015,07,05,10,49,24.90
2015,07,05,10,50,24.90
2015,07,05,10,51,25.00
2015,07,05,10,52,25.10
2015,07,05,10,53,25.10
2015,07,05,10,54,25.10
2015,07,05,10,55,25.20
2015,07,05,10,56,25.20
2015,07,05,10,57,25.20
2015,07,05,10,58,25.30
2015,07,05,10,59,25.30
2015,07,05,11,00,25.40
2015,07,05,11,01,25.40
2015,07,05,11,02,25.50
2015,07,05,11,03,25.60
2015,07,05,11,04,25.70
2015,07,05,11,05,25.80
2015,07,05,11,06,25.80
2015,07,05,11,07,25.90
2015,07,05,11,08,26.00
2015,07,05,11,09,26.10
2015,07,05,11,10,26.10
2015,07,05,11,11,26.20
2015,07,05,11,12,26.30
2015,07,05,11,13,26.50
2015,07,05,11,14,26.60
2015,07,05,11,15,26.70
2015,07,05,11,16,26.80
2015,07,05,11,17,26.90
2015,07,05,11,18,27.00
2015,07,05,11,19,27.10
2015,07,05,11,20,27.20
2015,07,05,11,21,27.30
2015,07,05,11,22,27.40
2015,07,05,11,23,27.50
2015,07,05,11,24,27.60
2015,07,05,11,25,27.70
2015,07,05,11,26,27.70
2015,07,05,11,27,27.80
2015,07,05,11,28,27.90
2015,07,05,11,29,27.90
2015,07,05,11,30,28.00
2015,07,05,11,31,28.00
2015,07,05,11,32,28.00
2015,07,05,11,33,28.10
2015,07,05,11,34,28.10
2015,07,05,11,35,28.10
2015,07,05,11,36,28.20
2015,07,05,11,37,28.20
2015,07,05,11,38,28.20
2015,07,05,11,39,28.30
2015,07,05,11,40,28.30
2015,07,05,11,41,28.40
2015,07,05,11,42,28.40
2015,07,05,11,43,28.50
2015,07,05,11,44,28.60
2015,07,05,11,45,28.60
2015,07,05,11,46,28.70
2015,07,05,11,47,28.80
2015,07,05,11,48,28.90
2015,07,05,11,49,28.90
2015,07,05,11,50,28.90
2015,07,05,11,51,28.90
2015,07,05,11,52,28.90
2015,07,05,11,53,28.80
2015,07,05,11,54,28.80
2015,07,05,11,55,28.90
2015,07,05,11,56,28.90
2015,07,05,11,57,28.90
2015,07,05,11,58,28.90
2015,07,05,11,59,28.90
2015,07,05,12,00,29.00
2015,07,05,12,01,29.10
2015,07,05,12,02,29.10
2015,07,05,12,03,29.10
2015,07,05,12,04,29.10
2015,07,05,12,05,29.10
2015,07,05,12,06,29.10
2015,07,05,12,07,29.10
2015,07,05,12,08,29.00
2015,07,05,12,09,29.00
2015,07,05,12,10,28.90
2015,07,05,12,11,28.90
2015,07,05,12,12,28.80
2015,07,05,12,13,28.70
2015,07,05,12,14,28.70
2015,07,05,12,15,28.60
2015,07,05,12,16,28.60
2015,07,05,12,17,28.50
2015,07,05,12,18,28.40
2015,07,05,12,19,28.40
2015,07,05,12,20,28.40
2015,07,05,12,21,28.30
2015,07,05,12,22,28.30
2015,07,05,12,23,28.30
2015,07,05,12,24,28.30
2015,07,05,12,25,28.20
2015,07,05,12,26,28.10
2015,07,05,12,27,28.00
2015,07,05,12,28,27.90
2015,07,05,12,29,27.80
2015,07,05,12,30,27.60
2015,07,05,12,31,27.50
2015,07,05,12,32,27.30
2015,07,05,12,33,27.20
2015,07,05,12,34,27.10
2015,07,05,12,35,27.10
2015,07,05,12,36,27.00
2015,07,05,12,37,27.10
2015,07,05,12,38,27.20
2015,07,05,12,39,27.30
2015,07,05,12,40,27.30
2015,07,05,12,41,27.30
2015,07,05,12,42,27.40
2015,07,05,12,43,27.40
2015,07,05,12,44,27.40
2015,07,05,12,45,27.40
2015,07,05,12,46,27.50
2015,07,05,12,47,27.50
2015,07,05,12,48,27.50
2015,07,05,12,49,27.50
2015,07,05,12,50,27.60
2015,07,05,12,51,27.60
2015,07,05,12,52,27.50
2015,07,05,12,53,27.30
2015,07,05,12,54,27.20
2015,07,05,12,55,27.00
2015,07,05,12,56,26.90
2015,07,05,12,57,26.90
2015,07,05,12,58,26.80
2015,07,05,12,59,26.90
2015,07,05,13,00,26.90
2015,07,05,13,01,26.90
2015,07,05,13,02,26.90
2015,07,05,13,03,26.80
2015,07,05,13,04,26.70
2015,07,05,13,05,26.50
2015,07,05,13,06,26.40
2015,07,05,13,07,26.30
2015,07,05,13,08,26.20
2015,07,05,13,09,26.20
2015,07,05,13,10,26.10
2015,07,05,13,11,26.10
2015,07,05,13,12,26.00
2015,07,05,13,13,25.80
2015,07,05,13,14,25.60
2015,07,05,13,15,25.50
2015,07,05,13,16,25.40
2015,07,05,13,17,25.30
2015,07,05,13,18,25.20
2015,07,05,13,19,25.10
2015,07,05,13,20,25.10
2015,07,05,13,21,25.00
2015,07,05,13,22,25.00
2015,07,05,13,23,24.90
2015,07,05,13,24,24.80
2015,07,05,13,25,24.70
2015,07,05,13,26,24.50
2015,07,05,13,27,24.30
2015,07,05,13,28,24.10
2015,07,05,13,29,23.90
2015,07,05,13,30,23.80
2015,07,05,13,31,23.80
2015,07,05,13,32,23.80
2015,07,05,13,33,23.90
2015,07,05,13,34,23.90
2015,07,05,13,35,23.90
2015,07,05,13,36,24.00
2015,07,05,13,37,24.00
2015,07,05,13,38,24.00
2015,07,05,13,39,23.90
2015,07,05,13,40,23.90
2015,07,05,13,41,23.90
2015,07,05,13,42,23.80
2015,07,05,13,43,23.80
2015,07,05,13,44,23.70
2015,07,05,13,45,23.70
2015,07,05,13,46,23.70
2015,07,05,13,47,23.80
2015,07,05,13,48,23.70
2015,07,05,13,49,23.80
2015,07,05,13,50,23.80
2015,07,05,13,51,23.90
2015,07,05,13,52,24.10
2015,07,05,13,53,24.20
2015,07,05,13,54,24.40
2015,07,05,13,55,24.50
2015,07,05,13,56,24.60
2015,07,05,13,57,24.60
2015,07,05,13,58,24.70
2015,07,05,13,59,24.70
2015,07,05,14,00,24.70
2015,07,05,14,01,24.60
2015,07,05,14,02,24.50
2015,07,05,14,03,24.40
2015,07,05,14,04,24.40
2015,07,05,14,05,24.40
2015,07,05,14,06,24.30
2015,07,05,14,07,24.30
2015,07,05,14,08,24.30
2015,07,05,14,09,24.30
2015,07,05,14,10,24.30
2015,07,05,14,11,24.40
2015,07,05,14,12,24.40
2015,07,05,14,13,24.40
2015,07,05,14,14,24.40
2015,07,05,14,15,24.40
2015,07,05,14,16,24.40
2015,07,05,14,17,24.30
2015,07,05,14,18,24.30
2015,07,05,14,19,24.40
2015,07,05,14,20,24.40
2015,07,05,14,21,24.40
2015,07,05,14,22,24.40
2015,07,05,14,23,24.30
2015,07,05,14,24,24.30
2015,07,05,14,25,24.20
2015,07,05,14,26,24.20
2015,07,05,14,27,24.20
2015,07,05,14,28,24.30
2015,07,05,14,29,24.30
2015,07,05,14,30,24.30
2015,07,05,14,31,24.30
2015,07,05,14,32,24.30
2015,07,05,14,33,24.40
2015,07,05,14,34,24.40
2015,07,05,14,35,24.50
2015,07,05,14,36,24.50
2015,07,05,14,37,24.60
2015,07,05,14,38,24.70
2015,07,05,14,39,24.80
2015,07,05,14,40,24.90
2015,07,05,14,41,24.90
2015,07,05,14,42,25.00
2015,07,05,14,43,25.10
2015,07,05,14,44,25.20
2015,07,05,14,45,25.30
2015,07,05,14,46,25.30
2015,07,05,14,47,25.30
2015,07,05,14,48,25.30
2015,07,05,14,49,25.40
2015,07,05,14,50,25.40
2015,07,05,14,51,25.40
2015,07,05,14,52,25.40
2015,07,05,14,53,25.40
2015,07,05,14,54,25.40
2015,07,05,14,55,25.50
2015,07,05,14,56,25.60
2015,07,05,14,57,25.60
2015,07,05,14,58,25.70
2015,07,05,14,59,25.80
2015,07,05,15,00,25.90
2015,07,05,15,01,26.00
2015,07,05,15,02,26.10
2015,07,05,15,03,26.20
2015,07,05,15,04,26.20
2015,07,05,15,05,26.20
2015,07,05,15,06,26.30
2015,07,05,15,07,26.40
2015,07,05,15,08,26.40
2015,07,05,15,09,26.40
2015,07,05,15,10,26.40
2015,07,05,15,11,26.40
2015,07,05,15,12,26.40
2015,07,05,15,13,26.40
2015,07,05,15,14,26.50
2015,07,05,15,15,26.60
2015,07,05,15,16,26.70
2015,07,05,15,17,26.80
2015,07,05,15,18,26.80
2015,07,05,15,19,26.90
2015,07,05,15,20,26.90
2015,07,05,15,21,26.90
2015,07,05,15,22,26.90
2015,07,05,15,23,26.90
2015,07,05,15,24,26.90
2015,07,05,15,25,26.90
2015,07,05,15,26,27.00
2015,07,05,15,27,27.00
2015,07,05,15,28,27.10
2015,07,05,15,29,27.10
2015,07,05,15,30,27.30
2015,07,05,15,31,27.30
2015,07,05,15,32,27.40
2015,07,05,15,33,27.40
2015,07,05,15,34,27.40
2015,07,05,15,35,27.50
2015,07,05,15,36,27.50
2015,07,05,15,37,27.40
2015,07,05,15,38,27.30
2015,07,05,15,39,27.20
2015,07,05,15,40,27.10
2015,07,05,15,41,27.00
2015,07,05,15,42,26.90
2015,07,05,15,43,26.80
2015,07,05,15,44,26.70
2015,07,05,15,45,26.70
2015,07,05,15,46,26.60
2015,07,05,15,47,26.50
2015,07,05,15,48,26.40
2015,07,05,15,49,26.40
2015,07,05,15,50,26.30
2015,07,05,15,51,26.20
2015,07,05,15,52,26.20
2015,07,05,15,53,26.20
2015,07,05,15,54,26.20
2015,07,05,15,55,26.10
2015,07,05,15,56,26.00
2015,07,05,15,57,25.90
2015,07,05,15,58,25.80
2015,07,05,15,59,25.60
2015,07,05,16,00,25.50
2015,07,05,16,01,25.30
2015,07,05,16,02,25.20
2015,07,05,16,03,25.00
2015,07,05,16,04,24.90
2015,07,05,16,05,24.80
2015,07,05,16,06,24.70
2015,07,05,16,07,24.70
2015,07,05,16,08,24.60
2015,07,05,16,09,24.50
2015,07,05,16,10,24.50
2015,07,05,16,11,24.40
2015,07,05,16,12,24.40
2015,07,05,16,13,24.40
2015,07,05,16,14,24.40
2015,07,05,16,15,24.50
2015,07,05,16,16,24.50
2015,07,05,16,17,24.60
2015,07,05,16,18,24.70
2015,07,05,16,19,24.80
2015,07,05,16,20,24.80
2015,07,05,16,21,24.80
2015,07,05,16,22,24.80
2015,07,05,16,23,24.90
2015,07,05,16,24,24.90
2015,07,05,16,25,25.10
2015,07,05,16,26,25.20
2015,07,05,16,27,25.30
2015,07,05,16,28,25.30
2015,07,05,16,29,25.40
2015,07,05,16,30,25.40
2015,07,05,16,31,25.40
2015,07,05,16,32,25.30
2015,07,05,16,33,25.30
2015,07,05,16,34,25.30
2015,07,05,16,35,25.30
2015,07,05,16,36,25.40
2015,07,05,16,37,25.40
2015,07,05,16,38,25.50
2015,07,05,16,39,25.50
2015,07,05,16,40,25.50
2015,07,05,16,41,25.50
2015,07,05,16,42,25.50
2015,07,05,16,43,25.40
2015,07,05,16,44,25.40
2015,07,05,16,45,25.40
2015,07,05,16,46,25.40
2015,07,05,16,47,25.50
2015,07,05,16,48,25.50
2015,07,05,16,49,25.60
2015,07,05,16,50,25.60
2015,07,05,16,51,25.60
2015,07,05,16,52,25.60
2015,07,05,16,53,25.60
2015,07,05,16,54,25.60
2015,07,05,16,55,25.70
2015,07,05,16,56,25.80
2015,07,05,16,57,25.80
2015,07,05,16,58,25.90
2015,07,05,16,59,25.90
2015,07,05,17,00,26.00
2015,07,05,17,01,26.00
2015,07,05,17,02,26.10
2015,07,05,17,03,26.10
2015,07,05,17,04,26.20
2015,07,05,17,05,26.20
2015,07,05,17,06,26.20
2015,07,05,17,07,26.20
2015,07,05,17,08,26.10
2015,07,05,17,09,26.00
2015,07,05,17,10,25.90
2015,07,05,17,11,25.80
2015,07,05,17,12,25.80
2015,07,05,17,13,25.90
2015,07,05,17,14,25.90
2015,07,05,17,15,26.00
2015,07,05,17,16,26.10
2015,07,05,17,17,26.10
2015,07,05,17,18,26.20
2015,07,05,17,19,26.20
2015,07,05,17,20,26.20
2015,07,05,17,21,26.10
2015,07,05,17,22,26.10
2015,07,05,17,23,26.10
2015,07,05,17,24,26.10
2015,07,05,17,25,26.10
2015,07,05,17,26,26.20
2015,07,05,17,27,26.20
2015,07,05,17,28,26.30
2015,07,05,17,29,26.40
2015,07,05,17,30,26.50
2015,07,05,17,31,26.60
2015,07,05,17,32,26.60
2015,07,05,17,33,26.60
2015,07,05,17,34,26.60
2015,07,05,17,35,26.60
2015,07,05,17,36,26.60
2015,07,05,17,37,26.50
2015,07,05,17,38,26.40
2015,07,05,17,39,26.40
2015,07,05,17,40,26.30
2015,07,05,17,41,26.30
2015,07,05,17,42,26.20
2015,07,05,17,43,26.20
2015,07,05,17,44,26.20
2015,07,05,17,45,26.20
2015,07,05,17,46,26.20
2015,07,05,17,47,26.20
2015,07,05,17,48,26.20
2015,07,05,17,49,26.20
2015,07,05,17,50,26.20
2015,07,05,17,51,26.10
2015,07,05,17,52,26.20
2015,07,05,17,53,26.20
2015,07,05,17,54,26.20
2015,07,05,17,55,26.20
2015,07,05,17,56,26.10
2015,07,05,17,57,26.10
2015,07,05,17,58,26.10
2015,07,05,17,59,26.10
2015,07,05,18,00,26.10
2015,07,05,18,01,26.10
2015,07,05,18,02,26.20
2015,07,05,18,03,26.20
2015,07,05,18,04,26.30
2015,07,05,18,05,26.30
2015,07,05,18,06,26.30
2015,07,05,18,07,26.40
2015,07,05,18,08,26.40
2015,07,05,18,09,26.50
2015,07,05,18,10,26.50
2015,07,05,18,11,26.60
2015,07,05,18,12,26.60
2015,07,05,18,13,26.70
2015,07,05,18,14,26.70
2015,07,05,18,15,26.80
2015,07,05,18,16,26.80
2015,07,05,18,17,26.80